FW3936 Weather Reports


Display with metric or nautical units.
time (UTC)temp
F
wind
direction
speed
MPH
gust
MPH
rain 1hr
in
rain 24hr
in
rain mn
in
humidity
%
barometer
mb
20260902200518 100 130 1.0 5.0 0.00 0.00 0.00 34 1013.9
20260902200017 100 128 1.0 6.0 0.00 0.00 0.00 35 1014.0
20260902195516 99 91 0.0 11.0 0.00 0.00 0.00 35 1014.2
20260902195014 99 90 5.0 11.0 0.00 0.00 0.00 34 1014.3
20260902194514 99 90 2.0 8.0 0.00 0.00 0.00 35 1014.3
20260902194014 99 80 3.0 8.0 0.00 0.00 0.00 35 1014.3
20260902193512 99 134 1.0 6.0 0.00 0.00 0.00 35 1014.4
20260902193012 99 134 3.0 8.0 0.00 0.00 0.00 35 1014.5
20260902192509 99 148 2.0 5.0 0.00 0.00 0.00 37 1014.7
20260902192009 98 186 0.0 4.0 0.00 0.00 0.00 37 1014.7
20260902191508 98 134 0.0 10.0 0.00 0.00 0.00 38 1014.8
20260902191010 97 134 2.0 10.0 0.00 0.00 0.00 39 1014.9
20260902190507 97 132 1.0 4.0 0.00 0.00 0.00 37 1014.9
20260902190007 98 281 0.0 5.0 0.00 0.00 0.00 36 1015.0
20260902185506 98 281 1.0 5.0 0.00 0.00 0.00 36 1015.1
20260902185004 98 134 0.0 6.0 0.00 0.00 0.00 37 1015.2
20260902184504 98 134 1.0 8.0 0.00 0.00 0.00 37 1015.3
20260902184003 98 136 3.0 8.0 0.00 0.00 0.00 39 1015.4
20260902183502 98 131 2.0 6.0 0.00 0.00 0.00 39 1015.3
20260902183002 98 140 1.0 6.0 0.00 0.00 0.00 39 1015.6
20260902182600 98 140 2.0 6.0 0.00 0.00 0.00 40 1015.5
20260902182101 97 140 0.0 8.0 0.00 0.00 0.00 40 1015.7
20260902181559 97 140 2.0 8.0 0.00 0.00 0.00 40 1015.7
20260902181057 97 130 2.0 5.0 0.00 0.00 0.00 40 1015.8
20260902180556 97 230 0.0 7.0 0.00 0.00 0.00 40 1015.8
20260902175554 96 146 2.0 7.0 0.00 0.00 0.00 42 1016.1
20260902175053 96 150 1.0 5.0 0.00 0.00 0.00 43 1016.2
20260902174602 96 148 1.0 9.0 0.00 0.00 0.00 43 1016.2
20260902174053 96 148 3.0 9.0 0.00 0.00 0.00 43 1016.3
20260902173551 95 138 2.0 7.0 0.00 0.00 0.00 44 1016.4
20260902173049 95 99 0.0 5.0 0.00 0.00 0.00 43 1016.4
20260902172548 95 99 0.0 7.0 0.00 0.00 0.00 45 1016.5
20260902172046 95 103 2.0 7.0 0.00 0.00 0.00 44 1016.5
20260902171557 95 156 0.0 4.0 0.00 0.00 0.00 46 1016.6
20260902171049 95 157 0.0 3.0 0.00 0.00 0.00 45 1016.7
20260902170542 94 157 0.0 3.0 0.00 0.00 0.00 45 1016.7
20260902170041 94 157 1.0 4.0 0.00 0.00 0.00 45 1016.8
20260902165541 93 157 0.0 6.0 0.00 0.00 0.00 47 1016.9
20260902165039 93 157 1.0 6.0 0.00 0.00 0.00 47 1016.9
20260902164536 92 175 0.0 4.0 0.00 0.00 0.00 49 1016.8
20260902164036 92 175 0.0 5.0 0.00 0.00 0.00 48 1016.9
20260902163534 92 175 1.0 5.0 0.00 0.00 0.00 49 1016.9
20260902163034 92 225 0.0 4.0 0.00 0.00 0.00 52 1017.0
20260902162532 91 226 0.0 2.0 0.00 0.00 0.00 53 1017.0
20260902162030 91 226 0.0 4.0 0.00 0.00 0.00 54 1016.9
20260902161539 91 226 0.0 4.0 0.00 0.00 0.00 54 1016.9
20260902161028 90 238 1.0 3.0 0.00 0.00 0.00 56 1016.9
20260902160527 89 246 0.0 4.0 0.00 0.00 0.00 56 1017.0
20260902160026 89 246 1.0 4.0 0.00 0.00 0.00 57 1017.1
20260902155525 89 161 1.0 4.0 0.00 0.00 0.00 57 1017.0
20260902155027 88 161 1.0 4.0 0.00 0.00 0.00 59 1017.0
20260902154530 88 161 1.0 4.0 0.00 0.00 0.00 59 1017.0
20260902154020 87 163 0.0 4.0 0.00 0.00 0.00 59 1017.0
20260902153521 87 163 2.0 4.0 0.00 0.00 0.00 60 1017.0
20260902153018 87 262 1.0 3.0 0.00 0.00 0.00 60 1016.9
20260902152517 87 262 0.0 5.0 0.00 0.00 0.00 62 1016.9
20260902152015 86 180 0.0 5.0 0.00 0.00 0.00 62 1016.9
20260902151514 86 182 0.0 4.0 0.00 0.00 0.00 63 1017.0
20260902151013 85 182 1.0 4.0 0.00 0.00 0.00 65 1017.0
20260902150514 84 227 0.0 4.0 0.00 0.00 0.00 65 1017.0
20260902150010 84 279 0.0 4.0 0.00 0.00 0.00 67 1017.1
20260902145508 83 141 0.0 6.0 0.00 0.00 0.00 68 1017.1
20260902145009 83 141 0.0 6.0 0.00 0.00 0.00 68 1017.0
20260902144505 82 106 1.0 4.0 0.00 0.00 0.00 69 1017.0
20260902144003 82 105 0.0 3.0 0.00 0.00 0.00 70 1017.0
20260902143502 81 105 0.0 3.0 0.00 0.00 0.00 70 1017.0
20260902143001 81 105 0.0 3.0 0.00 0.00 0.00 71 1017.0
20260902142601 80 105 0.0 2.0 0.00 0.00 0.00 71 1017.0
20260902142059 80 105 0.0 4.0 0.00 0.00 0.00 71 1017.1
20260902141558 79 105 0.0 4.0 0.00 0.00 0.00 71 1017.1
20260902141058 79 105 0.0 1.0 0.00 0.00 0.00 71 1017.0
20260902140559 78 105 0.0 1.0 0.00 0.00 0.00 70 1017.0
20260902140057 78 105 0.0 1.0 0.00 0.00 0.00 70 1017.0
20260902135555 77 105 0.0 3.0 0.00 0.00 0.00 69 1017.0
20260902135054 77 105 0.0 3.0 0.00 0.00 0.00 67 1016.9
20260902134556 76 105 0.0 2.0 0.00 0.00 0.00 66 1017.0
20260902134052 76 105 0.0 2.0 0.00 0.00 0.00 65 1017.0
20260902133552 76 105 0.0 1.0 0.00 0.00 0.00 65 1016.9
20260902133053 76 105 0.0 1.0 0.00 0.00 0.00 64 1017.0
20260902132550 75 105 0.0 0.0 0.00 0.00 0.00 64 1016.9
20260902132049 75 105 0.0 1.0 0.00 0.00 0.00 65 1016.9
20260902131548 75 105 0.0 1.0 0.00 0.00 0.00 65 1016.8
20260902131048 75 105 0.0 1.0 0.00 0.00 0.00 66 1016.8
20260902130547 74 105 0.0 0.0 0.00 0.00 0.00 66 1016.7
20260902130047 74 105 0.0 0.0 0.00 0.00 0.00 68 1016.6
20260902125546 74 105 0.0 0.0 0.00 0.00 0.00 68 1016.7
20260902125045 74 105 0.0 0.0 0.00 0.00 0.00 69 1016.6
20260902124544 73 105 0.0 0.0 0.00 0.00 0.00 70 1016.6
20260902124048 73 105 0.0 0.0 0.00 0.00 0.00 70 1016.5
20260902123543 73 105 0.0 0.0 0.00 0.00 0.00 71 1016.5
20260902123044 73 105 0.0 0.0 0.00 0.00 0.00 71 1016.5
20260902122542 74 105 0.0 1.0 0.00 0.00 0.00 71 1016.4
20260902122040 74 105 0.0 3.0 0.00 0.00 0.00 71 1016.4
20260902121539 74 105 0.0 3.0 0.00 0.00 0.00 71 1016.4
20260902121139 74 105 0.0 2.0 0.00 0.00 0.00 72 1016.4
20260902120541 74 105 0.0 1.0 0.00 0.00 0.00 72 1016.3
20260902120037 74 105 0.0 1.0 0.00 0.00 0.00 71 1016.2
20260902115541 74 105 0.0 2.0 0.00 0.00 0.00 71 1016.2
20260902115037 74 105 0.0 0.0 0.00 0.00 0.00 71 1016.2
20260902114603 74 105 0.0 0.0 0.00 0.00 0.00 72 1016.2
20260902114037 74 105 0.0 0.0 0.00 0.00 0.00 72 1016.2
20260902113535 74 105 0.0 0.0 0.00 0.00 0.00 72 1016.2
20260902113047 74 105 0.0 1.0 0.00 0.00 0.00 72 1016.1
20260902112536 74 105 0.0 2.0 0.00 0.00 0.00 72 1016.2
20260902112037 75 105 0.0 2.0 0.00 0.00 0.00 72 1016.0
20260902111535 75 105 0.0 2.0 0.00 0.00 0.00 72 1016.0
20260902111034 75 105 0.0 1.0 0.00 0.00 0.00 72 1016.1
20260902110533 75 105 0.0 1.0 0.00 0.00 0.00 72 1016.2
20260902110039 75 105 0.0 1.0 0.00 0.00 0.00 72 1016.0
20260902105534 75 105 0.0 0.0 0.00 0.00 0.00 72 1016.0
20260902105035 74 105 0.0 0.0 0.00 0.00 0.00 72 1016.0
20260902104538 74 105 0.0 0.0 0.00 0.00 0.00 72 1016.0
20260902104037 74 105 0.0 0.0 0.00 0.00 0.00 72 1016.0
20260902103532 75 105 0.0 0.0 0.00 0.00 0.00 72 1016.0
20260902103032 75 105 0.0 0.0 0.00 0.00 0.00 72 1016.1
20260902102532 75 105 0.0 1.0 0.00 0.00 0.00 72 1016.0
20260902102034 75 105 0.0 1.0 0.00 0.00 0.00 72 1016.0
20260902101532 75 105 0.0 0.0 0.00 0.00 0.00 72 1016.0
20260902101034 75 105 0.0 0.0 0.00 0.00 0.00 72 1016.0
20260902100532 75 105 0.0 0.0 0.00 0.00 0.00 72 1016.0
20260902100031 75 105 0.0 0.0 0.00 0.00 0.00 72 1016.0
20260902095530 75 105 0.0 0.0 0.00 0.00 0.00 72 1016.1
20260902095033 75 105 0.0 0.0 0.00 0.00 0.00 72 1016.1
20260902094530 75 105 0.0 0.0 0.00 0.00 0.00 72 1016.1
20260902094030 75 105 0.0 0.0 0.00 0.00 0.00 72 1016.2
20260902093530 74 105 0.0 0.0 0.00 0.00 0.00 72 1016.2
20260902093029 74 105 0.0 1.0 0.00 0.00 0.00 72 1016.1
20260902092529 75 105 0.0 1.0 0.00 0.00 0.00 72 1016.2
20260902092029 75 105 0.0 0.0 0.00 0.00 0.00 72 1016.3
20260902091535 75 105 0.0 0.0 0.00 0.00 0.00 71 1016.3
20260902091027 75 105 0.0 0.0 0.00 0.00 0.00 71 1016.4
20260902090527 75 105 0.0 0.0 0.00 0.00 0.00 71 1016.3
20260902090027 75 105 0.0 0.0 0.00 0.00 0.00 71 1016.3
20260902085527 75 105 0.0 0.0 0.00 0.00 0.00 71 1016.2
20260902085026 75 105 0.0 1.0 0.00 0.00 0.00 71 1016.2
20260902084528 75 105 0.0 1.0 0.00 0.00 0.00 71 1016.2
20260902084026 75 105 0.0 1.0 0.00 0.00 0.00 71 1016.3
20260902083526 76 105 0.0 1.0 0.00 0.00 0.00 71 1016.2
20260902083028 76 105 0.0 1.0 0.00 0.00 0.00 71 1016.3
20260902082523 76 105 0.0 1.0 0.00 0.00 0.00 70 1016.4
20260902082024 76 105 0.0 0.0 0.00 0.00 0.00 70 1016.4
20260902081523 76 105 0.0 0.0 0.00 0.00 0.00 70 1016.4
20260902081021 76 105 0.0 0.0 0.00 0.00 0.00 70 1016.4
20260902080521 76 105 0.0 0.0 0.00 0.00 0.00 70 1016.4
20260902080021 76 105 0.0 0.0 0.00 0.00 0.00 70 1016.5
20260902075519 77 105 0.0 0.0 0.00 0.00 0.00 69 1016.6
20260902075019 77 105 0.0 1.0 0.00 0.00 0.00 69 1016.5
20260902074523 77 105 0.0 1.0 0.00 0.00 0.00 69 1016.5
20260902074019 77 105 0.0 0.0 0.00 0.00 0.00 69 1016.5
20260902073517 77 105 0.0 2.0 0.00 0.00 0.00 69 1016.5
20260902073017 77 105 0.0 2.0 0.00 0.00 0.00 69 1016.5
20260902072517 77 105 0.0 2.0 0.00 0.00 0.00 69 1016.4
20260902072016 77 105 0.0 2.0 0.00 0.00 0.00 69 1016.4
20260902071518 77 105 0.0 2.0 0.00 0.00 0.00 69 1016.4
20260902071016 77 105 0.0 2.0 0.00 0.00 0.00 68 1016.4
20260902070516 78 105 0.0 1.0 0.00 0.00 0.00 68 1016.4
20260902070014 78 105 0.0 2.0 0.00 0.00 0.00 68 1016.4
20260902065514 78 105 0.0 3.0 0.00 0.00 0.00 68 1016.4
20260902065014 78 105 0.0 3.0 0.00 0.00 0.00 68 1016.4
20260902064513 78 105 0.0 3.0 0.00 0.00 0.00 67 1016.4
20260902064012 78 105 0.0 2.0 0.00 0.00 0.00 67 1016.4
20260902063511 78 105 0.0 2.0 0.00 0.00 0.00 67 1016.4
20260902063017 79 105 1.0 2.0 0.00 0.00 0.00 67 1016.4
20260902062510 79 105 0.0 3.0 0.00 0.00 0.00 67 1016.5
20260902062008 79 105 0.0 3.0 0.00 0.00 0.00 66 1016.5
20260902061523 79 105 1.0 2.0 0.00 0.00 0.00 66 1016.5
20260902061007 79 105 0.0 2.0 0.00 0.00 0.00 66 1016.3
20260902060506 79 105 1.0 2.0 0.00 0.00 0.00 66 1016.4
20260902060014 79 105 1.0 2.0 0.00 0.00 0.00 66 1016.3
20260902055505 80 105 0.0 3.0 0.00 0.00 0.00 65 1016.3
20260902055005 80 105 1.0 3.0 0.00 0.00 0.00 65 1016.3
20260902054507 80 105 1.0 3.0 0.00 0.00 0.00 65 1016.2
20260902054004 80 105 1.0 3.0 0.00 0.00 0.00 65 1016.1
20260902053505 80 105 0.0 2.0 0.00 0.00 0.00 65 1016.1
20260902053004 80 105 1.0 3.0 0.00 0.00 0.00 65 1016.2
20260902052502 80 105 1.0 3.0 0.00 0.00 0.00 65 1016.2
20260902052002 80 105 1.0 3.0 0.00 0.00 0.00 65 1016.2
20260902051501 80 105 1.0 3.0 0.00 0.00 0.00 65 1016.2
20260902051100 80 105 1.0 4.0 0.00 0.00 0.00 65 1016.1
20260902050601 80 105 2.0 7.0 0.00 0.00 0.00 66 1016.2
20260902050100 80 105 2.0 7.0 0.00 0.00 0.00 66 1016.3
20260902045559 80 105 1.0 4.0 0.00 0.00 0.00 66 1016.2
20260902045058 80 105 0.0 3.0 0.00 0.00 0.00 65 1016.2
20260902044601 80 105 0.0 3.0 0.00 0.00 0.00 65 1016.2
20260902044158 80 105 0.0 3.0 0.00 0.00 0.00 64 1016.2
20260902043556 80 105 1.0 3.0 0.00 0.00 0.00 64 1016.2
20260902043058 81 105 0.0 3.0 0.00 0.00 0.00 64 1016.1
20260902042600 81 105 0.0 2.0 0.00 0.00 0.00 64 1016.1
20260902042056 81 105 0.0 3.0 0.00 0.00 0.00 64 1016.1
20260902041557 81 105 1.0 3.0 0.00 0.00 0.00 64 1016.1
20260902041055 81 105 1.0 3.0 0.00 0.00 0.00 63 1016.0
20260902040556 81 105 0.0 3.0 0.00 0.00 0.00 63 1016.0
20260902040057 81 105 1.0 4.0 0.00 0.00 0.00 63 1015.9
20260902035555 81 105 1.0 7.0 0.00 0.00 0.00 63 1016.0
20260902035055 81 105 2.0 7.0 0.00 0.00 0.00 63 1016.0
20260902034605 81 105 2.0 7.0 0.00 0.00 0.00 63 1016.0
20260902034054 81 105 1.0 5.0 0.00 0.00 0.00 62 1015.9
20260902033553 81 105 1.0 5.0 0.00 0.00 0.00 62 1015.9
20260902033103 81 106 2.0 4.0 0.00 0.00 0.00 62 1015.8
20260902032555 81 106 2.0 4.0 0.00 0.00 0.00 62 1015.7
20260902032052 82 106 1.0 4.0 0.00 0.00 0.00 61 1015.6
20260902031552 82 106 1.0 4.0 0.00 0.00 0.00 61 1015.5
20260902031056 82 106 2.0 4.0 0.00 0.00 0.00 61 1015.5
20260902030553 82 106 1.0 3.0 0.00 0.00 0.00 61 1015.5
20260902030052 82 106 1.0 5.0 0.00 0.00 0.00 61 1015.3
20260902025552 82 106 2.0 7.0 0.00 0.00 0.00 61 1015.2
20260902025052 82 106 1.0 7.0 0.00 0.00 0.00 60 1015.2
20260902024552 83 106 2.0 3.0 0.00 0.00 0.00 60 1015.1
20260902024051 83 106 1.0 5.0 0.00 0.00 0.00 60 1015.0
20260902023550 83 106 3.0 5.0 0.00 0.00 0.00 59 1014.8
20260902023053 83 106 2.0 4.0 0.00 0.00 0.00 59 1014.8
20260902022551 83 106 2.0 4.0 0.00 0.00 0.00 58 1014.8
20260902022050 84 106 3.0 0.0 0.00 0.00 0.00 58 1014.7
20260902021550 84 106 2.0 4.0 0.00 0.00 0.00 58 1014.6
20260902021050 84 106 2.0 4.0 0.00 0.00 0.00 57 1014.5
20260902020550 84 106 1.0 4.0 0.00 0.00 0.00 57 1014.4
20260902020057 84 106 1.0 4.0 0.00 0.00 0.00 56 1014.4
20260902015549 85 106 2.0 4.0 0.00 0.00 0.00 56 1014.3
20260902015049 85 106 1.0 4.0 0.00 0.00 0.00 55 1014.2
20260902014551 85 106 1.0 4.0 0.00 0.00 0.00 55 1014.1
20260902014051 85 106 1.0 4.0 0.00 0.00 0.00 54 1014.1
20260902013548 86 106 1.0 5.0 0.00 0.00 0.00 54 1014.1
20260902013049 86 106 2.0 5.0 0.00 0.00 0.00 53 1014.1
20260902012547 86 106 2.0 5.0 0.00 0.00 0.00 52 1014.1
20260902012047 87 107 1.0 5.0 0.00 0.00 0.00 52 1014.1
20260902011547 87 107 2.0 4.0 0.00 0.00 0.00 51 1014.0
20260902011047 88 107 0.0 2.0 0.00 0.00 0.00 50 1013.8
20260902010548 88 107 0.0 0.0 0.00 0.00 0.00 49 1013.7
20260902010047 88 107 0.0 0.0 0.00 0.00 0.00 48 1013.8
20260902005547 89 107 0.0 0.0 0.00 0.00 0.00 48 1013.8
20260902005047 89 107 0.0 2.0 0.00 0.00 0.00 47 1013.7
20260902004547 90 107 0.0 3.0 0.00 0.00 0.00 47 1013.7
20260902004050 90 107 0.0 3.0 0.00 0.00 0.00 46 1013.7
20260902003545 90 107 0.0 5.0 0.00 0.00 0.00 45 1013.8
20260902003046 90 107 2.0 5.0 0.00 0.00 0.00 45 1013.9
20260902002544 91 107 2.0 5.0 0.00 0.00 0.00 44 1013.8
20260902002045 91 107 0.0 4.0 0.00 0.00 0.00 44 1013.8
20260902001553 91 107 1.0 4.0 0.00 0.00 0.00 43 1013.8
20260902001044 91 107 1.0 9.0 0.00 0.00 0.00 43 1013.8
20260902000544 91 107 2.0 9.0 0.00 0.00 0.00 42 1013.7
20260902000046 92 111 2.0 5.0 0.00 0.00 0.00 42 1013.7
20260901235544 92 111 0.0 3.0 0.00 0.00 0.00 42 1013.9
20260901235043 92 111 1.0 4.0 0.00 0.00 0.00 41 1013.9
20260901234544 92 111 0.0 4.0 0.00 0.00 0.00 40 1013.8
20260901234043 92 111 0.0 2.0 0.00 0.00 0.00 40 1013.8
20260901233543 92 111 0.0 5.0 0.00 0.00 0.00 40 1013.8
20260901233056 93 111 1.0 5.0 0.00 0.00 0.00 39 1013.8
20260901232542 93 113 0.0 4.0 0.00 0.00 0.00 38 1013.8
20260901232042 93 113 1.0 4.0 0.00 0.00 0.00 39 1013.9
20260901231544 93 113 0.0 5.0 0.00 0.00 0.00 38 1013.9
20260901231042 93 113 1.0 11.0 0.00 0.00 0.00 39 1013.9
20260901230542 93 90 4.0 11.0 0.00 0.00 0.00 39 1013.8
20260901230042 93 93 3.0 8.0 0.00 0.00 0.00 39 1013.9
20260901225542 94 94 1.0 5.0 0.00 0.00 0.00 38 1013.8
20260901225040 94 94 0.0 5.0 0.00 0.00 0.00 39 1014.0
20260901224541 94 94 1.0 6.0 0.00 0.00 0.00 39 1014.0
20260901224039 94 94 1.0 7.0 0.00 0.00 0.00 39 1014.0
20260901223539 94 93 2.0 5.0 0.00 0.00 0.00 39 1014.0
20260901223043 94 92 0.0 3.0 0.00 0.00 0.00 38 1013.9
20260901222537 94 92 0.0 8.0 0.00 0.00 0.00 38 1013.9
20260901222038 95 92 1.0 8.0 0.00 0.00 0.00 36 1013.9
20260901221538 95 93 2.0 7.0 0.00 0.00 0.00 36 1014.0
20260901221037 96 90 3.0 7.0 0.00 0.00 0.00 38 1014.0
20260901220537 96 87 3.0 7.0 0.00 0.00 0.00 38 1014.0
20260901215536 95 85 1.0 7.0 0.00 0.00 0.00 38 1014.0
20260901215035 96 84 0.0 10.0 0.00 0.00 0.00 36 1014.1
20260901214536 96 95 1.0 9.0 0.00 0.00 0.00 37 1014.1
20260901214035 97 95 4.0 9.0 0.00 0.00 0.00 36 1014.1
20260901213536 97 110 0.0 8.0 0.00 0.00 0.00 36 1014.1
20260901213034 97 77 3.0 8.0 0.00 0.00 0.00 38 1014.1
20260901212532 98 85 1.0 8.0 0.00 0.00 0.00 35 1014.2
20260901212034 97 79 1.0 5.0 0.00 0.00 0.00 36 1014.3
20260901211537 97 94 0.0 8.0 0.00 0.00 0.00 33 1014.3
20260901211031 97 84 1.0 8.0 0.00 0.00 0.00 35 1014.4
20260901210530 98 130 1.0 7.0 0.00 0.00 0.00 36 1014.4
20260901210031 98 130 2.0 9.0 0.00 0.00 0.00 33 1014.4
20260901205533 98 122 1.0 7.0 0.00 0.00 0.00 33 1014.5
20260901205028 97 129 2.0 6.0 0.00 0.00 0.00 35 1014.6
20260901204527 98 105 2.0 5.0 0.00 0.00 0.00 35 1014.8
20260901204026 97 105 0.0 3.0 0.00 0.00 0.00 37 1014.8
20260901203529 97 105 0.0 8.0 0.00 0.00 0.00 36 1014.8
20260901203034 97 105 2.0 8.0 0.00 0.00 0.00 36 1015.0
20260901202524 97 102 1.0 10.0 0.00 0.00 0.00 36 1015.0
20260901202023 97 98 2.0 10.0 0.00 0.00 0.00 38 1015.1
20260901201523 97 116 2.0 7.0 0.00 0.00 0.00 38 1015.2
20260901201022 95 100 2.0 7.0 0.00 0.00 0.00 40 1015.3